Year,Month,Day,Hour,Minute,Value (Times are PST for temperature in C)
2019,04,02,00,00,9.50
2019,04,02,00,01,9.50
2019,04,02,00,02,9.40
2019,04,02,00,03,9.40
2019,04,02,00,04,9.40
2019,04,02,00,05,9.40
2019,04,02,00,06,9.40
2019,04,02,00,07,9.30
2019,04,02,00,08,9.30
2019,04,02,00,09,9.30
2019,04,02,00,10,9.30
2019,04,02,00,11,9.30
2019,04,02,00,12,9.30
2019,04,02,00,13,9.20
2019,04,02,00,14,9.20
2019,04,02,00,15,9.20
2019,04,02,00,16,9.20
2019,04,02,00,17,9.20
2019,04,02,00,18,9.10
2019,04,02,00,19,9.10
2019,04,02,00,20,9.10
2019,04,02,00,21,9.10
2019,04,02,00,22,9.10
2019,04,02,00,23,9.10
2019,04,02,00,24,9.10
2019,04,02,00,25,9.00
2019,04,02,00,26,9.00
2019,04,02,00,27,9.00
2019,04,02,00,28,8.90
2019,04,02,00,29,8.90
2019,04,02,00,30,8.90
2019,04,02,00,31,8.90
2019,04,02,00,32,8.90
2019,04,02,00,33,8.80
2019,04,02,00,34,8.80
2019,04,02,00,35,8.80
2019,04,02,00,36,8.80
2019,04,02,00,37,8.80
2019,04,02,00,38,8.80
2019,04,02,00,39,8.80
2019,04,02,00,40,8.80
2019,04,02,00,41,8.80
2019,04,02,00,42,8.70
2019,04,02,00,43,8.70
2019,04,02,00,44,8.70
2019,04,02,00,45,8.70
2019,04,02,00,46,8.70
2019,04,02,00,47,8.70
2019,04,02,00,48,8.70
2019,04,02,00,49,8.70
2019,04,02,00,50,8.70
2019,04,02,00,51,8.70
2019,04,02,00,52,8.70
2019,04,02,00,53,8.60
2019,04,02,00,54,8.60
2019,04,02,00,55,8.60
2019,04,02,00,56,8.60
2019,04,02,00,57,8.60
2019,04,02,00,58,8.60
2019,04,02,00,59,8.60
2019,04,02,01,00,8.50
2019,04,02,01,01,8.50
2019,04,02,01,02,8.50
2019,04,02,01,03,8.50
2019,04,02,01,04,8.50
2019,04,02,01,05,8.40
2019,04,02,01,06,8.40
2019,04,02,01,07,8.40
2019,04,02,01,08,8.40
2019,04,02,01,09,8.40
2019,04,02,01,10,8.40
2019,04,02,01,11,8.30
2019,04,02,01,12,8.30
2019,04,02,01,13,8.30
2019,04,02,01,14,8.30
2019,04,02,01,15,8.30
2019,04,02,01,16,8.30
2019,04,02,01,17,8.30
2019,04,02,01,18,8.20
2019,04,02,01,19,8.20
2019,04,02,01,20,8.20
2019,04,02,01,21,8.20
2019,04,02,01,22,8.20
2019,04,02,01,23,8.20
2019,04,02,01,24,8.20
2019,04,02,01,25,8.20
2019,04,02,01,26,8.20
2019,04,02,01,27,8.20
2019,04,02,01,28,8.20
2019,04,02,01,29,8.10
2019,04,02,01,30,8.10
2019,04,02,01,31,8.10
2019,04,02,01,32,8.10
2019,04,02,01,33,8.10
2019,04,02,01,34,8.10
2019,04,02,01,35,8.10
2019,04,02,01,36,8.10
2019,04,02,01,37,8.10
2019,04,02,01,38,8.10
2019,04,02,01,39,8.00
2019,04,02,01,40,8.00
2019,04,02,01,41,8.00
2019,04,02,01,42,7.90
2019,04,02,01,43,7.90
2019,04,02,01,44,7.90
2019,04,02,01,45,7.90
2019,04,02,01,46,7.90
2019,04,02,01,47,7.90
2019,04,02,01,48,7.90
2019,04,02,01,49,7.90
2019,04,02,01,50,7.90
2019,04,02,01,51,7.90
2019,04,02,01,52,7.90
2019,04,02,01,53,7.90
2019,04,02,01,54,7.90
2019,04,02,01,55,7.90
2019,04,02,01,56,7.90
2019,04,02,01,57,7.90
2019,04,02,01,58,7.90
2019,04,02,01,59,7.90
2019,04,02,02,00,7.90
2019,04,02,02,01,7.90
2019,04,02,02,02,7.90
2019,04,02,02,03,7.90
2019,04,02,02,04,7.90
2019,04,02,02,05,7.90
2019,04,02,02,06,7.90
2019,04,02,02,07,7.90
2019,04,02,02,08,7.90
2019,04,02,02,09,7.90
2019,04,02,02,10,7.80
2019,04,02,02,11,7.80
2019,04,02,02,12,7.80
2019,04,02,02,13,7.80
2019,04,02,02,14,7.70
2019,04,02,02,15,7.70
2019,04,02,02,16,7.70
2019,04,02,02,17,7.70
2019,04,02,02,18,7.60
2019,04,02,02,19,7.60
2019,04,02,02,20,7.60
2019,04,02,02,21,7.50
2019,04,02,02,22,7.50
2019,04,02,02,23,7.50
2019,04,02,02,24,7.50
2019,04,02,02,25,7.40
2019,04,02,02,26,7.40
2019,04,02,02,27,7.40
2019,04,02,02,28,7.30
2019,04,02,02,29,7.30
2019,04,02,02,30,7.30
2019,04,02,02,31,7.30
2019,04,02,02,32,7.30
2019,04,02,02,33,7.20
2019,04,02,02,34,7.20
2019,04,02,02,35,7.20
2019,04,02,02,36,7.20
2019,04,02,02,37,7.20
2019,04,02,02,38,7.20
2019,04,02,02,39,7.20
2019,04,02,02,40,7.10
2019,04,02,02,41,7.10
2019,04,02,02,42,7.10
2019,04,02,02,43,7.10
2019,04,02,02,44,7.10
2019,04,02,02,45,7.10
2019,04,02,02,46,7.10
2019,04,02,02,47,7.10
2019,04,02,02,48,7.00
2019,04,02,02,49,7.00
2019,04,02,02,50,7.00
2019,04,02,02,51,7.00
2019,04,02,02,52,7.00
2019,04,02,02,53,7.00
2019,04,02,02,54,7.00
2019,04,02,02,55,7.00
2019,04,02,02,56,7.00
2019,04,02,02,57,7.00
2019,04,02,02,58,7.00
2019,04,02,02,59,7.00
2019,04,02,03,00,7.00
2019,04,02,03,01,6.90
2019,04,02,03,02,6.90
2019,04,02,03,03,6.90
2019,04,02,03,04,6.90
2019,04,02,03,05,6.90
2019,04,02,03,06,6.90
2019,04,02,03,07,6.90
2019,04,02,03,08,6.80
2019,04,02,03,09,6.80
2019,04,02,03,10,6.80
2019,04,02,03,11,6.80
2019,04,02,03,12,6.80
2019,04,02,03,13,6.80
2019,04,02,03,14,6.70
2019,04,02,03,15,6.70
2019,04,02,03,16,6.70
2019,04,02,03,17,6.70
2019,04,02,03,18,6.70
2019,04,02,03,19,6.70
2019,04,02,03,20,6.70
2019,04,02,03,21,6.70
2019,04,02,03,22,6.70
2019,04,02,03,23,6.70
2019,04,02,03,24,6.70
2019,04,02,03,25,6.70
2019,04,02,03,26,6.70
2019,04,02,03,27,6.70
2019,04,02,03,28,6.70
2019,04,02,03,29,6.70
2019,04,02,03,30,6.80
2019,04,02,03,31,6.80
2019,04,02,03,32,6.80
2019,04,02,03,33,6.90
2019,04,02,03,34,6.90
2019,04,02,03,35,6.90
2019,04,02,03,36,6.90
2019,04,02,03,37,6.90
2019,04,02,03,38,6.90
2019,04,02,03,39,6.80
2019,04,02,03,40,6.80
2019,04,02,03,41,6.80
2019,04,02,03,42,6.80
2019,04,02,03,43,6.80
2019,04,02,03,44,6.80
2019,04,02,03,45,6.80
2019,04,02,03,46,6.80
2019,04,02,03,47,6.80
2019,04,02,03,48,6.80
2019,04,02,03,49,6.80
2019,04,02,03,50,6.80
2019,04,02,03,51,6.80
2019,04,02,03,52,6.80
2019,04,02,03,53,6.80
2019,04,02,03,54,6.80
2019,04,02,03,55,6.70
2019,04,02,03,56,6.70
2019,04,02,03,57,6.70
2019,04,02,03,58,6.60
2019,04,02,03,59,6.60
2019,04,02,04,00,6.60
2019,04,02,04,01,6.50
2019,04,02,04,02,6.50
2019,04,02,04,03,6.50
2019,04,02,04,04,6.40
2019,04,02,04,05,6.40
2019,04,02,04,06,6.40
2019,04,02,04,07,6.30
2019,04,02,04,08,6.30
2019,04,02,04,09,6.30
2019,04,02,04,10,6.30
2019,04,02,04,11,6.20
2019,04,02,04,12,6.20
2019,04,02,04,13,6.20
2019,04,02,04,14,6.20
2019,04,02,04,15,6.10
2019,04,02,04,16,6.10
2019,04,02,04,17,6.10
2019,04,02,04,18,6.10
2019,04,02,04,19,6.00
2019,04,02,04,20,6.00
2019,04,02,04,21,6.00
2019,04,02,04,22,6.00
2019,04,02,04,23,5.90
2019,04,02,04,24,5.90
2019,04,02,04,25,5.90
2019,04,02,04,26,5.90
2019,04,02,04,27,5.80
2019,04,02,04,28,5.80
2019,04,02,04,29,5.80
2019,04,02,04,30,5.80
2019,04,02,04,31,5.80
2019,04,02,04,32,5.80
2019,04,02,04,33,5.80
2019,04,02,04,34,5.80
2019,04,02,04,35,5.80
2019,04,02,04,36,5.80
2019,04,02,04,37,5.80
2019,04,02,04,38,5.80
2019,04,02,04,39,5.80
2019,04,02,04,40,5.80
2019,04,02,04,41,5.80
2019,04,02,04,42,5.80
2019,04,02,04,43,5.80
2019,04,02,04,44,5.80
2019,04,02,04,45,5.90
2019,04,02,04,46,6.00
2019,04,02,04,47,6.00
2019,04,02,04,48,6.10
2019,04,02,04,49,6.10
2019,04,02,04,50,6.20
2019,04,02,04,51,6.20
2019,04,02,04,52,6.30
2019,04,02,04,53,6.30
2019,04,02,04,54,6.30
2019,04,02,04,55,6.30
2019,04,02,04,56,6.30
2019,04,02,04,57,6.30
2019,04,02,04,58,6.30
2019,04,02,04,59,6.30
2019,04,02,05,00,6.30
2019,04,02,05,01,6.30
2019,04,02,05,02,6.30
2019,04,02,05,03,6.20
2019,04,02,05,04,6.20
2019,04,02,05,05,6.20
2019,04,02,05,06,6.20
2019,04,02,05,07,6.20
2019,04,02,05,08,6.20
2019,04,02,05,09,6.20
2019,04,02,05,10,6.10
2019,04,02,05,11,6.10
2019,04,02,05,12,6.10
2019,04,02,05,13,6.10
2019,04,02,05,14,6.00
2019,04,02,05,15,6.00
2019,04,02,05,16,6.00
2019,04,02,05,17,5.90
2019,04,02,05,18,5.90
2019,04,02,05,19,5.90
2019,04,02,05,20,5.90
2019,04,02,05,21,5.80
2019,04,02,05,22,5.80
2019,04,02,05,23,5.80
2019,04,02,05,24,5.80
2019,04,02,05,25,5.80
2019,04,02,05,26,5.80
2019,04,02,05,27,5.90
2019,04,02,05,28,5.90
2019,04,02,05,29,6.00
2019,04,02,05,30,6.00
2019,04,02,05,31,6.00
2019,04,02,05,32,6.10
2019,04,02,05,33,6.10
2019,04,02,05,34,6.10
2019,04,02,05,35,6.10
2019,04,02,05,36,6.10
2019,04,02,05,37,6.10
2019,04,02,05,38,6.10
2019,04,02,05,39,6.10
2019,04,02,05,40,6.10
2019,04,02,05,41,6.10
2019,04,02,05,42,6.20
2019,04,02,05,43,6.20
2019,04,02,05,44,6.20
2019,04,02,05,45,6.20
2019,04,02,05,46,6.20
2019,04,02,05,47,6.20
2019,04,02,05,48,6.20
2019,04,02,05,49,6.30
2019,04,02,05,50,6.30
2019,04,02,05,51,6.30
2019,04,02,05,52,6.30
2019,04,02,05,53,6.30
2019,04,02,05,54,6.30
2019,04,02,05,55,6.30
2019,04,02,05,56,6.30
2019,04,02,05,57,6.30
2019,04,02,05,58,6.30
2019,04,02,05,59,6.20
2019,04,02,06,00,6.20
2019,04,02,06,01,6.10
2019,04,02,06,02,6.10
2019,04,02,06,03,6.10
2019,04,02,06,04,6.00
2019,04,02,06,05,6.00
2019,04,02,06,06,5.90
2019,04,02,06,07,5.90
2019,04,02,06,08,5.90
2019,04,02,06,09,5.90
2019,04,02,06,10,5.90
2019,04,02,06,11,5.80
2019,04,02,06,12,5.80
2019,04,02,06,13,5.80
2019,04,02,06,14,5.80
2019,04,02,06,15,5.70
2019,04,02,06,16,5.70
2019,04,02,06,17,5.70
2019,04,02,06,18,5.70
2019,04,02,06,19,5.60
2019,04,02,06,20,5.60
2019,04,02,06,21,5.60
2019,04,02,06,22,5.60
2019,04,02,06,23,5.60
2019,04,02,06,24,5.60
2019,04,02,06,25,5.60
2019,04,02,06,26,5.60
2019,04,02,06,27,5.60
2019,04,02,06,28,5.60
2019,04,02,06,29,5.60
2019,04,02,06,30,5.60
2019,04,02,06,31,5.60
2019,04,02,06,32,5.60
2019,04,02,06,33,5.60
2019,04,02,06,34,5.60
2019,04,02,06,35,5.60
2019,04,02,06,36,5.60
2019,04,02,06,37,5.60
2019,04,02,06,38,5.60
2019,04,02,06,39,5.60
2019,04,02,06,40,5.50
2019,04,02,06,41,5.50
2019,04,02,06,42,5.50
2019,04,02,06,43,5.50
2019,04,02,06,44,5.50
2019,04,02,06,45,5.50
2019,04,02,06,46,5.40
2019,04,02,06,47,5.40
2019,04,02,06,48,5.40
2019,04,02,06,49,5.30
2019,04,02,06,50,5.30
2019,04,02,06,51,5.30
2019,04,02,06,52,5.20
2019,04,02,06,53,5.30
2019,04,02,06,54,5.30
2019,04,02,06,55,5.30
2019,04,02,06,56,5.30
2019,04,02,06,57,5.20
2019,04,02,06,58,5.20
2019,04,02,06,59,5.20
2019,04,02,07,00,5.20
2019,04,02,07,01,5.20
2019,04,02,07,02,5.10
2019,04,02,07,03,5.10
2019,04,02,07,04,5.10
2019,04,02,07,05,5.10
2019,04,02,07,06,5.10
2019,04,02,07,07,5.00
2019,04,02,07,08,5.00
2019,04,02,07,09,5.10
2019,04,02,07,10,5.00
2019,04,02,07,11,5.10
2019,04,02,07,12,5.00
2019,04,02,07,13,5.00
2019,04,02,07,14,5.00
2019,04,02,07,15,5.00
2019,04,02,07,16,4.90
2019,04,02,07,17,4.90
2019,04,02,07,18,4.90
2019,04,02,07,19,4.90
2019,04,02,07,20,4.90
2019,04,02,07,21,4.90
2019,04,02,07,22,4.90
2019,04,02,07,23,4.80
2019,04,02,07,24,4.80
2019,04,02,07,25,4.80
2019,04,02,07,26,4.80
2019,04,02,07,27,4.80
2019,04,02,07,28,4.80
2019,04,02,07,29,4.80
2019,04,02,07,30,4.80
2019,04,02,07,31,4.70
2019,04,02,07,32,4.70
2019,04,02,07,33,4.70
2019,04,02,07,34,4.70
2019,04,02,07,35,4.70
2019,04,02,07,36,4.70
2019,04,02,07,37,4.70
2019,04,02,07,38,4.70
2019,04,02,07,39,4.70
2019,04,02,07,40,4.70
2019,04,02,07,41,4.70
2019,04,02,07,42,4.70
2019,04,02,07,43,4.70
2019,04,02,07,44,4.70
2019,04,02,07,45,4.70
2019,04,02,07,46,4.70
2019,04,02,07,47,4.70
2019,04,02,07,48,4.70
2019,04,02,07,49,4.70
2019,04,02,07,50,4.70
2019,04,02,07,51,4.70
2019,04,02,07,52,4.70
2019,04,02,07,53,4.80
2019,04,02,07,54,4.80
2019,04,02,07,55,4.80
2019,04,02,07,56,4.80
2019,04,02,07,57,4.80
2019,04,02,07,58,4.80
2019,04,02,07,59,4.80
2019,04,02,08,00,4.80
2019,04,02,08,01,4.80
2019,04,02,08,02,4.80
2019,04,02,08,03,4.90
2019,04,02,08,04,4.90
2019,04,02,08,05,4.90
2019,04,02,08,06,4.90
2019,04,02,08,07,5.00
2019,04,02,08,08,5.00
2019,04,02,08,09,5.10
2019,04,02,08,10,5.10
2019,04,02,08,11,5.20
2019,04,02,08,12,5.30
2019,04,02,08,13,5.40
2019,04,02,08,14,5.40
2019,04,02,08,15,5.50
2019,04,02,08,16,5.60
2019,04,02,08,17,5.70
2019,04,02,08,18,5.80
2019,04,02,08,19,5.90
2019,04,02,08,20,5.90
2019,04,02,08,21,6.00
2019,04,02,08,22,6.10
2019,04,02,08,23,6.10
2019,04,02,08,24,6.20
2019,04,02,08,25,6.20
2019,04,02,08,26,6.30
2019,04,02,08,27,6.30
2019,04,02,08,28,6.30
2019,04,02,08,29,6.30
2019,04,02,08,30,6.30
2019,04,02,08,31,6.30
2019,04,02,08,32,6.30
2019,04,02,08,33,6.30
2019,04,02,08,34,6.40
2019,04,02,08,35,6.40
2019,04,02,08,36,6.40
2019,04,02,08,37,6.40
2019,04,02,08,38,6.50
2019,04,02,08,39,6.60
2019,04,02,08,40,6.60
2019,04,02,08,41,6.60
2019,04,02,08,42,6.70
2019,04,02,08,43,6.70
2019,04,02,08,44,6.70
2019,04,02,08,45,6.80
2019,04,02,08,46,6.80
2019,04,02,08,47,6.90
2019,04,02,08,48,6.90
2019,04,02,08,49,6.90
2019,04,02,08,50,7.00
2019,04,02,08,51,7.10
2019,04,02,08,52,7.10
2019,04,02,08,53,7.10
2019,04,02,08,54,7.10
2019,04,02,08,55,7.10
2019,04,02,08,56,7.20
2019,04,02,08,57,7.20
2019,04,02,08,58,7.20
2019,04,02,08,59,7.20
2019,04,02,09,00,7.20
2019,04,02,09,01,7.20
2019,04,02,09,02,7.30
2019,04,02,09,03,7.30
2019,04,02,09,04,7.30
2019,04,02,09,05,7.30
2019,04,02,09,06,7.30
2019,04,02,09,07,7.40
2019,04,02,09,08,7.40
2019,04,02,09,09,7.40
2019,04,02,09,10,7.40
2019,04,02,09,11,7.40
2019,04,02,09,12,7.50
2019,04,02,09,13,7.50
2019,04,02,09,14,7.50
2019,04,02,09,15,7.60
2019,04,02,09,16,7.60
2019,04,02,09,17,7.60
2019,04,02,09,18,7.60
2019,04,02,09,19,7.60
2019,04,02,09,20,7.60
2019,04,02,09,21,7.60
2019,04,02,09,22,7.60
2019,04,02,09,23,7.60
2019,04,02,09,24,7.60
2019,04,02,09,25,7.70
2019,04,02,09,26,7.70
2019,04,02,09,27,7.80
2019,04,02,09,28,7.80
2019,04,02,09,29,7.90
2019,04,02,09,30,7.90
2019,04,02,09,31,8.00
2019,04,02,09,32,8.00
2019,04,02,09,33,8.10
2019,04,02,09,34,8.10
2019,04,02,09,35,8.10
2019,04,02,09,36,8.10
2019,04,02,09,37,8.10
2019,04,02,09,38,8.30
2019,04,02,09,39,8.40
2019,04,02,09,40,8.50
2019,04,02,09,41,8.50
2019,04,02,09,42,8.60
2019,04,02,09,43,8.70
2019,04,02,09,44,8.70
2019,04,02,09,45,8.80
2019,04,02,09,46,8.80
2019,04,02,09,47,8.80
2019,04,02,09,48,8.90
2019,04,02,09,49,9.00
2019,04,02,09,50,9.00
2019,04,02,09,51,9.10
2019,04,02,09,52,9.10
2019,04,02,09,53,9.10
2019,04,02,09,54,9.20
2019,04,02,09,55,9.20
2019,04,02,09,56,9.30
2019,04,02,09,57,9.40
2019,04,02,09,58,9.40
2019,04,02,09,59,9.50
2019,04,02,10,00,9.50
2019,04,02,10,01,9.60
2019,04,02,10,02,9.60
2019,04,02,10,03,9.60
2019,04,02,10,04,9.70
2019,04,02,10,05,9.70
2019,04,02,10,06,9.70
2019,04,02,10,07,9.70
2019,04,02,10,08,9.80
2019,04,02,10,09,9.80
2019,04,02,10,10,9.80
2019,04,02,10,11,9.90
2019,04,02,10,12,9.90
2019,04,02,10,13,9.90
2019,04,02,10,14,10.00
2019,04,02,10,15,10.00
2019,04,02,10,16,10.10
2019,04,02,10,17,10.10
2019,04,02,10,18,10.10
2019,04,02,10,19,10.20
2019,04,02,10,20,10.20
2019,04,02,10,21,10.20
2019,04,02,10,22,10.20
2019,04,02,10,23,10.20
2019,04,02,10,24,10.30
2019,04,02,10,25,10.30
2019,04,02,10,26,10.30
2019,04,02,10,27,10.30
2019,04,02,10,28,10.30
2019,04,02,10,29,10.40
2019,04,02,10,30,10.40
2019,04,02,10,31,10.50
2019,04,02,10,32,10.50
2019,04,02,10,33,10.60
2019,04,02,10,34,10.60
2019,04,02,10,35,10.70
2019,04,02,10,36,10.80
2019,04,02,10,37,10.80
2019,04,02,10,38,10.90
2019,04,02,10,39,10.90
2019,04,02,10,40,11.00
2019,04,02,10,41,11.10
2019,04,02,10,42,11.10
2019,04,02,10,43,11.20
2019,04,02,10,44,11.20
2019,04,02,10,45,11.30
2019,04,02,10,46,11.40
2019,04,02,10,47,11.40
2019,04,02,10,48,11.50
2019,04,02,10,49,11.60
2019,04,02,10,50,11.70
2019,04,02,10,51,11.80
2019,04,02,10,52,11.80
2019,04,02,10,53,11.90
2019,04,02,10,54,11.90
2019,04,02,10,55,12.00
2019,04,02,10,56,12.10
2019,04,02,10,57,12.10
2019,04,02,10,58,12.20
2019,04,02,10,59,12.20
2019,04,02,11,00,12.30
2019,04,02,11,01,12.40
2019,04,02,11,02,12.50
2019,04,02,11,03,12.70
2019,04,02,11,04,12.70
2019,04,02,11,05,12.80
2019,04,02,11,06,12.90
2019,04,02,11,07,13.00
2019,04,02,11,08,13.00
2019,04,02,11,09,13.00
2019,04,02,11,10,13.00
2019,04,02,11,11,13.10
2019,04,02,11,12,13.10
2019,04,02,11,13,13.10
2019,04,02,11,14,13.10
2019,04,02,11,15,13.20
2019,04,02,11,16,13.20
2019,04,02,11,17,13.20
2019,04,02,11,18,13.30
2019,04,02,11,19,13.30
2019,04,02,11,20,13.40
2019,04,02,11,21,13.50
2019,04,02,11,22,13.60
2019,04,02,11,23,13.70
2019,04,02,11,24,13.80
2019,04,02,11,25,13.90
2019,04,02,11,26,13.90
2019,04,02,11,27,14.00
2019,04,02,11,28,14.10
2019,04,02,11,29,14.10
2019,04,02,11,30,14.20
2019,04,02,11,31,14.30
2019,04,02,11,32,14.40
2019,04,02,11,33,14.50
2019,04,02,11,34,14.50
2019,04,02,11,35,14.60
2019,04,02,11,36,14.70
2019,04,02,11,37,14.70
2019,04,02,11,38,14.80
2019,04,02,11,39,14.80
2019,04,02,11,40,14.80
2019,04,02,11,41,14.80
2019,04,02,11,42,14.90
2019,04,02,11,43,14.90
2019,04,02,11,44,15.00
2019,04,02,11,45,15.00
2019,04,02,11,46,15.10
2019,04,02,11,47,15.10
2019,04,02,11,48,15.10
2019,04,02,11,49,15.10
2019,04,02,11,50,15.10
2019,04,02,11,51,15.10
2019,04,02,11,52,15.10
2019,04,02,11,53,15.10
2019,04,02,11,54,15.20
2019,04,02,11,55,15.20
2019,04,02,11,56,15.30
2019,04,02,11,57,15.40
2019,04,02,11,58,15.40
2019,04,02,11,59,15.40
2019,04,02,12,00,15.40
2019,04,02,12,01,15.40
2019,04,02,12,02,15.30
2019,04,02,12,03,15.40
2019,04,02,12,04,15.40
2019,04,02,12,05,15.40
2019,04,02,12,06,15.50
2019,04,02,12,07,15.50
2019,04,02,12,08,15.60
2019,04,02,12,09,15.60
2019,04,02,12,10,15.60
2019,04,02,12,11,15.70
2019,04,02,12,12,15.70
2019,04,02,12,13,15.70
2019,04,02,12,14,15.80
2019,04,02,12,15,15.90
2019,04,02,12,16,15.90
2019,04,02,12,17,16.00
2019,04,02,12,18,16.00
2019,04,02,12,19,16.10
2019,04,02,12,20,16.20
2019,04,02,12,21,16.20
2019,04,02,12,22,16.20
2019,04,02,12,23,16.30
2019,04,02,12,24,16.30
2019,04,02,12,25,16.40
2019,04,02,12,26,16.40
2019,04,02,12,27,16.40
2019,04,02,12,28,16.40
2019,04,02,12,29,16.50
2019,04,02,12,30,16.50
2019,04,02,12,31,16.60
2019,04,02,12,32,16.60
2019,04,02,12,33,16.70
2019,04,02,12,34,16.70
2019,04,02,12,35,16.70
2019,04,02,12,36,16.70
2019,04,02,12,37,16.60
2019,04,02,12,38,16.50
2019,04,02,12,39,16.40
2019,04,02,12,40,16.40
2019,04,02,12,41,16.30
2019,04,02,12,42,16.30
2019,04,02,12,43,16.40
2019,04,02,12,44,16.50
2019,04,02,12,45,16.50
2019,04,02,12,46,16.60
2019,04,02,12,47,16.60
2019,04,02,12,48,16.60
2019,04,02,12,49,16.60
2019,04,02,12,50,16.60
2019,04,02,12,51,16.60
2019,04,02,12,52,16.50
2019,04,02,12,53,16.60
2019,04,02,12,54,16.60
2019,04,02,12,55,16.60
2019,04,02,12,56,16.60
2019,04,02,12,57,16.70
2019,04,02,12,58,16.80
2019,04,02,12,59,16.80
2019,04,02,13,00,16.90
2019,04,02,13,01,17.00
2019,04,02,13,02,17.10
2019,04,02,13,03,17.10
2019,04,02,13,04,17.10
2019,04,02,13,05,17.10
2019,04,02,13,06,17.10
2019,04,02,13,07,17.10
2019,04,02,13,08,17.10
2019,04,02,13,09,17.10
2019,04,02,13,10,17.20
2019,04,02,13,11,17.20
2019,04,02,13,12,17.40
2019,04,02,13,13,17.60
2019,04,02,13,14,17.60
2019,04,02,13,15,17.70
2019,04,02,13,16,17.80
2019,04,02,13,17,17.90
2019,04,02,13,18,18.00
2019,04,02,13,19,18.10
2019,04,02,13,20,18.20
2019,04,02,13,21,18.20
2019,04,02,13,22,18.20
2019,04,02,13,23,18.20
2019,04,02,13,24,18.20
2019,04,02,13,25,18.30
2019,04,02,13,26,18.40
2019,04,02,13,27,18.40
2019,04,02,13,28,18.50
2019,04,02,13,29,18.60
2019,04,02,13,30,18.70
2019,04,02,13,31,18.70
2019,04,02,13,32,18.80
2019,04,02,13,33,18.80
2019,04,02,13,34,18.90
2019,04,02,13,35,19.00
2019,04,02,13,36,19.10
2019,04,02,13,37,19.10
2019,04,02,13,38,19.10
2019,04,02,13,39,19.10
2019,04,02,13,40,19.10
2019,04,02,13,41,19.10
2019,04,02,13,42,19.10
2019,04,02,13,43,19.10
2019,04,02,13,44,19.10
2019,04,02,13,45,19.10
2019,04,02,13,46,19.10
2019,04,02,13,47,19.10
2019,04,02,13,48,19.10
2019,04,02,13,49,19.20
2019,04,02,13,50,19.10
2019,04,02,13,51,19.10
2019,04,02,13,52,19.10
2019,04,02,13,53,19.00
2019,04,02,13,54,18.90
2019,04,02,13,55,18.80
2019,04,02,13,56,18.80
2019,04,02,13,57,18.70
2019,04,02,13,58,18.70
2019,04,02,13,59,18.70
2019,04,02,14,00,18.70
2019,04,02,14,01,18.70
2019,04,02,14,02,18.80
2019,04,02,14,03,18.80
2019,04,02,14,04,18.80
2019,04,02,14,05,18.80
2019,04,02,14,06,18.80
2019,04,02,14,07,18.90
2019,04,02,14,08,18.90
2019,04,02,14,09,19.00
2019,04,02,14,10,19.10
2019,04,02,14,11,19.10
2019,04,02,14,12,19.10
2019,04,02,14,13,19.10
2019,04,02,14,14,19.10
2019,04,02,14,15,19.00
2019,04,02,14,16,19.00
2019,04,02,14,17,18.90
2019,04,02,14,18,18.80
2019,04,02,14,19,18.80
2019,04,02,14,20,18.80
2019,04,02,14,21,18.80
2019,04,02,14,22,18.80
2019,04,02,14,23,18.80
2019,04,02,14,24,18.90
2019,04,02,14,25,18.90
2019,04,02,14,26,19.00
2019,04,02,14,27,19.00
2019,04,02,14,28,19.00
2019,04,02,14,29,18.90
2019,04,02,14,30,18.90
2019,04,02,14,31,18.90
2019,04,02,14,32,18.90
2019,04,02,14,33,18.90
2019,04,02,14,34,19.00
2019,04,02,14,35,19.10
2019,04,02,14,36,19.10
2019,04,02,14,37,19.10
2019,04,02,14,38,19.10
2019,04,02,14,39,19.10
2019,04,02,14,40,19.10
2019,04,02,14,41,19.10
2019,04,02,14,42,19.00
2019,04,02,14,43,19.00
2019,04,02,14,44,18.90
2019,04,02,14,45,18.90
2019,04,02,14,46,18.90
2019,04,02,14,47,18.90
2019,04,02,14,48,18.90
2019,04,02,14,49,18.90
2019,04,02,14,50,18.90
2019,04,02,14,51,18.90
2019,04,02,14,52,18.90
2019,04,02,14,53,19.00
2019,04,02,14,54,19.00
2019,04,02,14,55,19.00
2019,04,02,14,56,19.00
2019,04,02,14,57,19.10
2019,04,02,14,58,19.10
2019,04,02,14,59,19.10
2019,04,02,15,00,19.20
2019,04,02,15,01,19.10
2019,04,02,15,02,19.10
2019,04,02,15,03,19.00
2019,04,02,15,04,19.00
2019,04,02,15,05,19.00
2019,04,02,15,06,18.90
2019,04,02,15,07,18.90
2019,04,02,15,08,18.90
2019,04,02,15,09,19.00
2019,04,02,15,10,19.00
2019,04,02,15,11,19.00
2019,04,02,15,12,19.00
2019,04,02,15,13,18.90
2019,04,02,15,14,18.90
2019,04,02,15,15,18.90
2019,04,02,15,16,18.90
2019,04,02,15,17,18.90
2019,04,02,15,18,18.90
2019,04,02,15,19,18.80
2019,04,02,15,20,18.80
2019,04,02,15,21,18.90
2019,04,02,15,22,18.90
2019,04,02,15,23,18.90
2019,04,02,15,24,19.00
2019,04,02,15,25,19.00
2019,04,02,15,26,18.90
2019,04,02,15,27,18.90
2019,04,02,15,28,18.90
2019,04,02,15,29,18.90
2019,04,02,15,30,18.90
2019,04,02,15,31,18.90
2019,04,02,15,32,18.90
2019,04,02,15,33,18.90
2019,04,02,15,34,18.90
2019,04,02,15,35,18.80
2019,04,02,15,36,18.80
2019,04,02,15,37,18.80
2019,04,02,15,38,18.80
2019,04,02,15,39,18.80
2019,04,02,15,40,18.80
2019,04,02,15,41,18.80
2019,04,02,15,42,18.80
2019,04,02,15,43,18.80
2019,04,02,15,44,18.80
2019,04,02,15,45,18.80
2019,04,02,15,46,18.80
2019,04,02,15,47,18.90
2019,04,02,15,48,18.90
2019,04,02,15,49,18.90
2019,04,02,15,50,18.90
2019,04,02,15,51,18.90
2019,04,02,15,52,18.80
2019,04,02,15,53,18.80
2019,04,02,15,54,18.80
2019,04,02,15,55,18.80
2019,04,02,15,56,18.70
2019,04,02,15,57,18.70
2019,04,02,15,58,18.70
2019,04,02,15,59,18.80
2019,04,02,16,00,18.80
2019,04,02,16,01,18.70
2019,04,02,16,02,18.70
2019,04,02,16,03,18.70
2019,04,02,16,04,18.60
2019,04,02,16,05,18.60
2019,04,02,16,06,18.50
2019,04,02,16,07,18.50
2019,04,02,16,08,18.40
2019,04,02,16,09,18.40
2019,04,02,16,10,18.40
2019,04,02,16,11,18.40
2019,04,02,16,12,18.40
2019,04,02,16,13,18.20
2019,04,02,16,14,18.20
2019,04,02,16,15,18.20
2019,04,02,16,16,18.20
2019,04,02,16,17,18.20
2019,04,02,16,18,18.20
2019,04,02,16,19,18.20
2019,04,02,16,20,18.20
2019,04,02,16,21,18.20
2019,04,02,16,22,18.20
2019,04,02,16,23,18.20
2019,04,02,16,24,18.20
2019,04,02,16,25,18.20
2019,04,02,16,26,18.20
2019,04,02,16,27,18.20
2019,04,02,16,28,18.10
2019,04,02,16,29,18.10
2019,04,02,16,30,18.10
2019,04,02,16,31,18.00
2019,04,02,16,32,18.00
2019,04,02,16,33,18.00
2019,04,02,16,34,18.00
2019,04,02,16,35,18.00
2019,04,02,16,36,17.90
2019,04,02,16,37,17.90
2019,04,02,16,38,17.90
2019,04,02,16,39,17.90
2019,04,02,16,40,17.90
2019,04,02,16,41,17.90
2019,04,02,16,42,17.90
2019,04,02,16,43,17.90
2019,04,02,16,44,17.90
2019,04,02,16,45,17.90
2019,04,02,16,46,17.90
2019,04,02,16,47,17.90
2019,04,02,16,48,17.90
2019,04,02,16,49,18.00
2019,04,02,16,50,18.00
2019,04,02,16,51,18.00
2019,04,02,16,52,18.00
2019,04,02,16,53,18.00
2019,04,02,16,54,18.00
2019,04,02,16,55,18.00
2019,04,02,16,56,18.00
2019,04,02,16,57,18.00
2019,04,02,16,58,18.00
2019,04,02,16,59,18.00
2019,04,02,17,00,18.00
2019,04,02,17,01,17.90
2019,04,02,17,02,17.90
2019,04,02,17,03,17.90
2019,04,02,17,04,17.90
2019,04,02,17,05,17.90
2019,04,02,17,06,17.90
2019,04,02,17,07,17.90
2019,04,02,17,08,17.90
2019,04,02,17,09,17.90
2019,04,02,17,10,17.80
2019,04,02,17,11,17.80
2019,04,02,17,12,17.80
2019,04,02,17,13,17.80
2019,04,02,17,14,17.80
2019,04,02,17,15,17.80
2019,04,02,17,16,17.80
2019,04,02,17,17,17.80
2019,04,02,17,18,17.80
2019,04,02,17,19,17.80
2019,04,02,17,20,17.80
2019,04,02,17,21,17.80
2019,04,02,17,22,17.80
2019,04,02,17,23,17.80
2019,04,02,17,24,17.80
2019,04,02,17,25,17.80
2019,04,02,17,26,17.80
2019,04,02,17,27,17.80
2019,04,02,17,28,17.80
2019,04,02,17,29,17.70
2019,04,02,17,30,17.70
2019,04,02,17,31,17.70
2019,04,02,17,32,17.60
2019,04,02,17,33,17.60
2019,04,02,17,34,17.50
2019,04,02,17,35,17.40
2019,04,02,17,36,17.40
2019,04,02,17,37,17.40
2019,04,02,17,38,17.30
2019,04,02,17,39,17.30
2019,04,02,17,40,17.30
2019,04,02,17,41,17.30
2019,04,02,17,42,17.30
2019,04,02,17,43,17.20
2019,04,02,17,44,17.30
2019,04,02,17,45,17.30
2019,04,02,17,46,17.30